Radiation Dose at Monitoring Post of Fukushima Daini Nuclear Power Station
Date,Time,MP-1(microSv/h),MP-2(microSv/h),MP-3(microSv/h),MP-4(microSv/h),MP-5(microSv/h),MP-6(microSv/h),MP-7(microSv/h),Wind Direction,Wind Velocity(m/s),Rain
2016/11/04,00:00,0.414,0.239,0.424,0.387,0.366,0.199,0.171,east-northeast,0.6,No
2016/11/04,00:10,0.411,0.240,0.421,0.387,0.363,0.199,0.171,northwest,0.8,No
2016/11/04,00:20,0.412,0.239,0.424,0.387,0.367,0.199,0.172,west-northwest,3.3,No
2016/11/04,00:30,0.414,0.240,0.423,0.387,0.367,0.199,0.171,northwest,2.1,No
2016/11/04,00:40,0.412,0.241,0.423,0.388,0.366,0.199,0.170,northwest,2.0,No
2016/11/04,00:50,0.414,0.239,0.425,0.389,0.365,0.199,0.172,northwest,1.6,No
2016/11/04,01:00,0.415,0.240,0.424,0.386,0.368,0.199,0.172,north,1.9,No
2016/11/04,01:10,0.413,0.240,0.422,0.388,0.364,0.199,0.171,north,3.8,No
2016/11/04,01:20,0.413,0.240,0.424,0.387,0.366,0.199,0.172,north,4.2,No
2016/11/04,01:30,0.416,0.240,0.427,0.386,0.366,0.198,0.172,north-northeast,5.2,No
2016/11/04,01:40,0.412,0.239,0.423,0.387,0.365,0.199,0.171,north,4.9,No
2016/11/04,01:50,0.414,0.240,0.424,0.386,0.368,0.200,0.171,north-northeast,4.1,No
2016/11/04,02:00,0.414,0.240,0.424,0.386,0.367,0.200,0.171,north-northeast,7.1,No
2016/11/04,02:10,0.415,0.239,0.423,0.387,0.365,0.199,0.172,north,5.8,No
2016/11/04,02:20,0.414,0.239,0.425,0.386,0.365,0.199,0.172,north,8.2,No
2016/11/04,02:30,0.414,0.239,0.424,0.386,0.366,0.199,0.171,north,6.9,No
2016/11/04,02:40,0.412,0.240,0.423,0.388,0.365,0.200,0.172,north,5.0,No
2016/11/04,02:50,0.414,0.241,0.425,0.386,0.365,0.198,0.171,north-northwest,3.1,No
2016/11/04,03:00,0.414,0.240,0.424,0.386,0.368,0.199,0.170,north-northwest,3.7,No
2016/11/04,03:10,0.414,0.240,0.424,0.388,0.367,0.199,0.171,north-northwest,5.2,No
2016/11/04,03:20,0.415,0.241,0.424,0.387,0.365,0.199,0.172,north,6.1,No
2016/11/04,03:30,0.413,0.241,0.425,0.386,0.366,0.199,0.171,north,5.3,No
2016/11/04,03:40,0.413,0.240,0.423,0.387,0.366,0.200,0.171,north-northwest,2.5,No
2016/11/04,03:50,0.416,0.240,0.424,0.386,0.366,0.200,0.171,north-northeast,1.9,No
2016/11/04,04:00,0.413,0.241,0.424,0.387,0.365,0.199,0.171,north-northeast,2.2,No
2016/11/04,04:10,0.412,0.239,0.423,0.388,0.366,0.199,0.171,north-northeast,3.6,No
2016/11/04,04:20,0.412,0.240,0.426,0.385,0.366,0.200,0.170,north,3.3,No
2016/11/04,04:30,0.413,0.240,0.424,0.386,0.364,0.199,0.171,north-northeast,3.4,No
2016/11/04,04:40,0.413,0.239,0.424,0.387,0.366,0.199,0.171,north-northeast,3.6,No
2016/11/04,04:50,0.414,0.240,0.424,0.386,0.365,0.200,0.170,north,1.5,No
2016/11/04,05:00,0.415,0.241,0.425,0.386,0.366,0.199,0.171,north-northwest,2.2,No
2016/11/04,05:10,0.413,0.240,0.424,0.388,0.366,0.199,0.171,north,2.4,No
2016/11/04,05:20,0.413,0.239,0.424,0.387,0.366,0.200,0.172,north-northeast,4.5,No
2016/11/04,05:30,0.414,0.240,0.425,0.387,0.364,0.200,0.171,north,3.2,No
2016/11/04,05:40,0.413,0.241,0.424,0.385,0.364,0.199,0.171,north-northwest,2.8,No
2016/11/04,05:50,0.414,0.240,0.422,0.387,0.366,0.199,0.171,north,2.1,No
2016/11/04,06:00,0.414,0.240,0.424,0.386,0.364,0.199,0.171,northwest,2.2,No
2016/11/04,06:10,0.413,0.239,0.424,0.387,0.365,0.199,0.172,north-northwest,2.3,No
2016/11/04,06:20,0.413,0.239,0.424,0.388,0.366,0.200,0.171,north-northwest,1.5,No
2016/11/04,06:30,0.414,0.240,0.425,0.386,0.366,0.200,0.172,north-northwest,1.6,No
2016/11/04,06:40,0.414,0.240,0.426,0.386,0.363,0.199,0.171,west,1.4,No
2016/11/04,06:50,0.414,0.240,0.424,0.387,0.365,0.200,0.172,west-northwest,0.9,No
2016/11/04,07:00,0.413,0.240,0.423,0.388,0.365,0.199,0.171,north-northwest,0.5,No
2016/11/04,07:10,0.412,0.240,0.426,0.386,0.365,0.200,0.172,north,2.7,No
2016/11/04,07:20,0.412,0.240,0.423,0.387,0.363,0.200,0.171,north-northeast,2.8,No
2016/11/04,07:30,0.413,0.239,0.423,0.387,0.364,0.200,0.171,north,2.6,No
2016/11/04,07:40,0.414,0.241,0.425,0.384,0.366,0.200,0.171,north,2.6,No
2016/11/04,07:50,0.413,0.239,0.425,0.387,0.365,0.200,0.169,north,3.6,No
2016/11/04,08:00,0.413,0.240,0.423,0.386,0.366,0.198,0.170,north,3.8,No
2016/11/04,08:10,0.414,0.239,0.425,0.386,0.367,0.200,0.170,north-northeast,2.2,No
2016/11/04,08:20,0.411,0.240,0.425,0.387,0.364,0.199,0.170,northwest,0.7,No
2016/11/04,08:30,0.414,0.239,0.423,0.385,0.367,0.200,0.171,south,1.7,No
2016/11/04,08:40,0.414,0.240,0.426,0.386,0.366,0.200,0.171,south-southeast,0.9,No
2016/11/04,08:50,0.411,0.241,0.424,0.383,0.365,0.200,0.170,south-southeast,1.5,No
2016/11/04,09:00,0.412,0.240,0.422,0.385,0.367,0.200,0.172,south-southeast,1.1,No
2016/11/04,09:10,0.414,0.239,0.426,0.383,0.364,0.199,0.171,southeast,1.7,No
2016/11/04,09:20,0.411,0.240,0.422,0.386,0.366,0.199,0.172,southeast,2.7,No
2016/11/04,09:30,0.412,0.239,0.423,0.383,0.365,0.200,0.169,southeast,2.2,No
2016/11/04,09:40,0.411,0.239,0.423,0.388,0.364,0.199,0.171,east,1.7,No
2016/11/04,09:50,0.413,0.241,0.423,0.384,0.364,0.200,0.171,east,2.5,No
2016/11/04,10:00,0.412,0.239,0.424,0.387,0.364,0.198,0.172,east,3.3,No
2016/11/04,10:10,0.412,0.240,0.422,0.385,0.367,0.201,0.170,east,3.3,No
2016/11/04,10:20,0.413,0.240,0.423,0.386,0.364,0.200,0.172,east,3.9,No
2016/11/04,10:30,0.412,0.240,0.422,0.384,0.366,0.200,0.170,east-northeast,3.9,No
2016/11/04,10:40,0.413,0.240,0.422,0.386,0.363,0.200,0.172,east-northeast,2.2,No
2016/11/04,10:50,0.410,0.239,0.424,0.386,0.367,0.200,0.172,east-northeast,1.9,No
2016/11/04,11:00,0.415,0.240,0.423,0.386,0.365,0.200,0.172,east-southeast,1.7,No
2016/11/04,11:10,0.413,0.239,0.422,0.387,0.366,0.200,0.172,east-southeast,1.3,No
2016/11/04,11:20,0.414,0.241,0.423,0.385,0.366,0.199,0.171,southeast,1.8,No
2016/11/04,11:30,0.411,0.240,0.427,0.388,0.367,0.200,0.172,east,1.4,No
2016/11/04,11:40,0.413,0.241,0.422,0.386,0.363,0.198,0.171,southwest,0.7,No
2016/11/04,11:50,0.410,0.239,0.423,0.382,0.366,0.199,0.171,north,1.1,No
2016/11/04,12:00,0.413,0.240,0.422,0.385,0.363,0.200,0.171,north,1.9,No
2016/11/04,12:10,0.412,0.239,0.422,0.384,0.364,0.201,0.171,north,4.2,No
2016/11/04,12:20,0.414,0.240,0.423,0.388,0.365,0.199,0.172,north,2.8,No
2016/11/04,12:30,0.413,0.240,0.424,0.385,0.367,0.201,0.171,northeast,3.6,No
2016/11/04,12:40,0.412,0.240,0.425,0.388,0.364,0.198,0.172,northeast,3.4,No
2016/11/04,12:50,0.413,0.241,0.422,0.386,0.368,0.199,0.172,east-northeast,3.5,No
2016/11/04,13:00,0.412,0.240,0.423,0.388,0.366,0.200,0.172,east-northeast,1.6,No
2016/11/04,13:10,0.416,0.241,0.423,0.385,0.367,0.200,0.171,east-northeast,2.8,No
2016/11/04,13:20,0.413,0.241,0.424,0.386,0.365,0.200,0.170,east-northeast,2.5,No
2016/11/04,13:30,0.415,0.240,0.422,0.386,0.366,0.202,0.172,east-northeast,1.9,No
2016/11/04,13:40,0.415,0.240,0.424,0.387,0.363,0.199,0.172,northeast,2.2,No
2016/11/04,13:50,0.412,0.241,0.421,0.383,0.367,0.201,0.171,northeast,2.3,No
2016/11/04,14:00,0.414,0.239,0.425,0.386,0.363,0.200,0.172,northeast,2.2,No
2016/11/04,14:10,0.412,0.242,0.422,0.386,0.366,0.199,0.172,east-southeast,0.8,No
2016/11/04,14:20,0.414,0.241,0.426,0.386,0.365,0.200,0.172,south-southeast,1.7,No
2016/11/04,14:30,0.411,0.239,0.422,0.388,0.363,0.200,0.172,east-southeast,2.3,No
2016/11/04,14:40,0.412,0.240,0.425,0.387,0.365,0.199,0.172,east-southeast,2.6,No
2016/11/04,14:50,0.413,0.240,0.424,0.387,0.366,0.200,0.172,southeast,3.0,No
2016/11/04,15:00,0.410,0.240,0.424,0.388,0.368,0.200,0.171,south-southeast,3.4,No
2016/11/04,15:10,0.413,0.242,0.425,0.388,0.366,0.200,0.172,east-southeast,1.4,No
2016/11/04,15:20,0.413,0.240,0.425,0.386,0.366,0.199,0.172,south-southwest,4.2,No
2016/11/04,15:30,0.416,0.241,0.425,0.391,0.365,0.199,0.171,west-southwest,2.8,No
2016/11/04,15:40,0.412,0.241,0.424,0.386,0.367,0.199,0.171,northwest,1.7,No
2016/11/04,15:50,0.415,0.241,0.427,0.391,0.364,0.200,0.172,northwest,3.6,No
2016/11/04,16:00,0.412,0.241,0.424,0.387,0.366,0.201,0.172,northwest,2.9,No
2016/11/04,16:10,0.414,0.240,0.426,0.388,0.366,0.201,0.172,west-northwest,4.2,No
2016/11/04,16:20,0.414,0.241,0.425,0.389,0.365,0.201,0.172,west-northwest,5.3,No
2016/11/04,16:30,0.414,0.240,0.424,0.386,0.369,0.201,0.171,west-northwest,5.8,No
2016/11/04,16:40,0.414,0.242,0.425,0.389,0.366,0.201,0.172,west,6.1,No
2016/11/04,16:50,0.413,0.241,0.423,0.386,0.366,0.200,0.173,west-northwest,2.7,No
2016/11/04,17:00,0.414,0.239,0.426,0.390,0.368,0.201,0.173,west-northwest,1.7,No
2016/11/04,17:10,0.416,0.241,0.424,0.387,0.366,0.201,0.172,northwest,3.6,No
2016/11/04,17:20,0.413,0.241,0.425,0.389,0.365,0.202,0.172,northwest,3.0,No
2016/11/04,17:30,0.412,0.241,0.425,0.389,0.367,0.199,0.173,west-northwest,2.8,No
2016/11/04,17:40,0.417,0.240,0.425,0.388,0.367,0.200,0.171,west,2.5,No
2016/11/04,17:50,0.415,0.241,0.424,0.389,0.367,0.200,0.173,west,1.8,No
2016/11/04,18:00,0.414,0.240,0.424,0.388,0.369,0.200,0.172,west-northwest,1.6,No
2016/11/04,18:10,0.414,0.240,0.422,0.389,0.366,0.200,0.172,northwest,0.8,No
2016/11/04,18:20,0.414,0.241,0.425,0.389,0.366,0.201,0.172,west,0.9,No
2016/11/04,18:30,0.413,0.242,0.427,0.387,0.368,0.201,0.172,west,1.0,No
2016/11/04,18:40,0.415,0.241,0.425,0.388,0.365,0.201,0.173,northwest,0.5,No
2016/11/04,18:50,0.414,0.241,0.426,0.390,0.367,0.201,0.172,north-northwest,1.2,No
2016/11/04,19:00,0.413,0.241,0.425,0.388,0.369,0.202,0.171,west-northwest,2.6,No
2016/11/04,19:10,0.413,0.242,0.426,0.387,0.367,0.201,0.173,west,4.2,No
2016/11/04,19:20,0.416,0.241,0.428,0.390,0.366,0.200,0.173,west-northwest,4.5,No
2016/11/04,19:30,0.414,0.240,0.424,0.389,0.366,0.202,0.171,west-northwest,6.2,No
2016/11/04,19:40,0.415,0.242,0.424,0.389,0.369,0.201,0.172,west-northwest,4.7,No
2016/11/04,19:50,0.417,0.242,0.427,0.389,0.367,0.200,0.172,west-northwest,5.5,No
2016/11/04,20:00,0.414,0.240,0.425,0.388,0.368,0.201,0.172,west-northwest,5.1,No
2016/11/04,20:10,0.415,0.241,0.424,0.388,0.368,0.201,0.173,west-northwest,4.4,No
2016/11/04,20:20,0.416,0.242,0.426,0.389,0.368,0.200,0.172,west-northwest,2.2,No
2016/11/04,20:30,0.414,0.241,0.426,0.386,0.366,0.201,0.172,west,1.6,No
2016/11/04,20:40,0.414,0.240,0.424,0.388,0.367,0.200,0.172,west-northwest,0.9,No
2016/11/04,20:50,0.416,0.240,0.428,0.390,0.367,0.202,0.173,east,0.6,No
2016/11/04,21:00,0.414,0.242,0.425,0.388,0.366,0.201,0.172,east,1.5,No
2016/11/04,21:10,0.415,0.242,0.425,0.389,0.366,0.201,0.173,east,2.2,No
2016/11/04,21:20,0.416,0.242,0.428,0.390,0.367,0.201,0.173,east,2.0,No
2016/11/04,21:30,0.413,0.241,0.425,0.389,0.367,0.201,0.173,southeast,1.4,No
2016/11/04,21:40,0.414,0.241,0.426,0.389,0.367,0.201,0.172,east-southeast,2.2,No
2016/11/04,21:50,0.416,0.241,0.426,0.389,0.369,0.200,0.173,east,1.7,No
2016/11/04,22:00,0.415,0.242,0.424,0.387,0.366,0.200,0.173,south-southeast,0.8,No
2016/11/04,22:10,0.415,0.242,0.425,0.389,0.365,0.199,0.173,south-southwest,3.5,No
2016/11/04,22:20,0.414,0.241,0.427,0.388,0.368,0.201,0.172,south-southwest,5.1,No
2016/11/04,22:30,0.417,0.240,0.426,0.387,0.367,0.201,0.173,south-southwest,5.6,No
2016/11/04,22:40,0.416,0.242,0.425,0.389,0.367,0.201,0.173,south-southwest,4.9,No
2016/11/04,22:50,0.413,0.241,0.427,0.391,0.367,0.200,0.173,southwest,4.1,No
2016/11/04,23:00,0.417,0.241,0.427,0.388,0.368,0.201,0.173,south-southwest,5.1,No
2016/11/04,23:10,0.414,0.242,0.425,0.388,0.367,0.201,0.173,south-southwest,3.1,No
2016/11/04,23:20,0.414,0.242,0.426,0.390,0.366,0.201,0.173,south-southwest,3.5,No
2016/11/04,23:30,0.418,0.242,0.428,0.387,0.367,0.201,0.172,south-southwest,3.1,No
2016/11/04,23:40,0.414,0.240,0.425,0.388,0.367,0.201,0.172,south-southwest,2.2,No
2016/11/04,23:50,0.413,0.241,0.426,0.390,0.367,0.201,0.173,south-southwest,3.0,No
